Time,TemperatureF,DewpointF,PressureIn,WindDirection,WindDirectionDegrees,WindSpeedMPH,WindSpeedGustMPH,Humidity,HourlyPrecipIn,Conditions,Clouds,dailyrainin,SoftwareType,DateUTC
2013-08-24 00:14:00,72.0,71.0,30.03,SW,222,0.0,0.0,97,0.00,,,0.07,,2013-08-24 04:14:00,
2013-08-24 00:24:00,73.0,72.0,30.04,SW,222,0.0,0.0,97,0.00,,,0.07,,2013-08-24 04:24:00,
2013-08-24 00:44:00,73.0,72.0,30.04,SW,222,0.0,0.0,97,0.00,,,0.07,,2013-08-24 04:44:00,
2013-08-24 00:54:00,73.0,72.0,30.05,WSW,246,0.0,1.0,97,0.00,,,0.07,,2013-08-24 04:54:00,
2013-08-24 01:13:00,73.0,72.0,30.04,WSW,246,0.0,1.0,96,0.00,,,0.07,,2013-08-24 05:13:00,
2013-08-24 01:23:00,73.0,72.0,30.04,WSW,246,0.0,0.0,96,0.00,,,0.07,,2013-08-24 05:23:00,
2013-08-24 01:43:00,72.0,71.0,30.04,SW,228,0.0,0.0,96,0.00,,,0.07,,2013-08-24 05:43:00,
2013-08-24 01:53:00,72.0,71.0,30.04,SW,228,0.0,0.0,96,0.00,,,0.07,,2013-08-24 05:53:00,
2013-08-24 02:12:00,72.0,71.0,30.04,SW,228,0.0,0.0,96,0.00,,,0.07,,2013-08-24 06:12:00,
2013-08-24 02:22:00,71.0,70.0,30.03,SW,228,0.0,0.0,97,0.00,,,0.07,,2013-08-24 06:22:00,
2013-08-24 02:42:00,71.0,70.0,30.03,SW,228,0.0,0.0,97,0.00,,,0.07,,2013-08-24 06:42:00,
2013-08-24 02:52:00,71.0,70.0,30.03,SW,228,0.0,0.0,97,0.00,,,0.07,,2013-08-24 06:52:00,
2013-08-24 03:12:00,71.0,70.0,30.03,SW,228,0.0,0.0,97,0.00,,,0.07,,2013-08-24 07:12:00,
2013-08-24 03:22:00,71.0,70.0,30.03,SW,228,0.0,0.0,97,0.00,,,0.07,,2013-08-24 07:22:00,
2013-08-24 03:43:00,71.0,70.0,30.03,SW,228,0.0,0.0,97,0.00,,,0.07,,2013-08-24 07:43:00,
2013-08-24 03:53:00,71.0,70.0,30.04,SW,228,0.0,0.0,97,0.00,,,0.07,,2013-08-24 07:53:00,
2013-08-24 04:12:00,71.0,70.0,30.05,SW,228,0.0,0.0,98,0.00,,,0.07,,2013-08-24 08:12:00,
2013-08-24 04:22:00,71.0,70.0,30.06,SW,228,0.0,0.0,98,0.00,,,0.07,,2013-08-24 08:22:00,
2013-08-24 04:52:00,71.0,70.0,30.06,SW,228,0.0,0.0,97,0.00,,,0.07,,2013-08-24 08:52:00,
2013-08-24 05:11:00,71.0,70.0,30.06,SW,228,0.0,0.0,98,0.00,,,0.07,,2013-08-24 09:11:00,
2013-08-24 05:22:00,71.0,70.0,30.07,SW,228,0.0,0.0,98,0.00,,,0.06,,2013-08-24 09:22:00,
2013-08-24 05:44:00,72.0,71.0,30.07,SW,228,0.0,0.0,98,0.00,,,0.06,,2013-08-24 09:44:00,
2013-08-24 05:53:00,72.0,71.0,30.07,NNW,340,1.0,2.0,98,0.00,,,0.06,,2013-08-24 09:53:00,
2013-08-24 06:13:00,72.0,71.0,30.08,East,82,1.0,2.0,98,0.00,,,0.06,,2013-08-24 10:13:00,
2013-08-24 06:23:00,72.0,71.0,30.09,SE,127,1.0,2.0,97,0.00,,,0.06,,2013-08-24 10:23:00,
2013-08-24 06:42:00,72.0,71.0,30.09,East,83,1.0,2.0,97,0.00,,,0.06,,2013-08-24 10:42:00,
2013-08-24 06:53:00,73.0,72.0,30.10,East,80,1.0,2.0,96,0.00,,,0.06,,2013-08-24 10:53:00,
2013-08-24 07:12:00,73.0,71.0,30.11,NE,54,2.0,4.0,95,0.00,,,0.06,,2013-08-24 11:12:00,
2013-08-24 07:22:00,73.0,71.0,30.11,East,99,1.0,4.0,95,0.00,,,0.06,,2013-08-24 11:22:00,
2013-08-24 07:52:00,73.0,71.0,30.13,SE,134,1.0,3.0,95,0.00,,,0.06,,2013-08-24 11:52:00,
2013-08-24 08:12:00,73.0,71.0,30.13,NE,40,1.0,3.0,94,0.00,,,0.06,,2013-08-24 12:12:00,
2013-08-24 08:21:00,72.0,70.0,30.14,SE,131,2.0,5.0,94,0.00,,,0.06,,2013-08-24 12:21:00,
2013-08-24 08:42:00,72.0,70.0,30.14,ENE,78,1.0,6.0,93,0.00,,,0.06,,2013-08-24 12:42:00,
2013-08-24 08:52:00,72.0,70.0,30.14,ESE,120,2.0,5.0,92,0.00,,,0.06,,2013-08-24 12:52:00,
2013-08-24 09:11:00,72.0,70.0,30.15,ENE,74,3.0,6.0,92,0.00,,,0.06,,2013-08-24 13:11:00,
2013-08-24 09:22:00,72.0,70.0,30.16,NNE,30,2.0,3.0,93,0.00,,,0.06,,2013-08-24 13:22:00,
2013-08-24 09:52:00,72.0,69.0,30.17,NNE,23,1.0,5.0,91,0.00,,,0.06,,2013-08-24 13:52:00,
2013-08-24 10:11:00,72.0,69.0,30.18,ENE,64,1.0,4.0,91,0.00,,,0.06,,2013-08-24 14:11:00,
2013-08-24 10:22:00,72.0,69.0,30.18,NE,36,2.0,5.0,90,0.00,,,0.06,,2013-08-24 14:22:00,
2013-08-24 10:52:00,73.0,70.0,30.19,NE,49,2.0,5.0,90,0.00,,,0.06,,2013-08-24 14:52:00,
2013-08-24 11:12:00,73.0,70.0,30.19,ENE,60,0.0,4.0,90,0.00,,,0.06,,2013-08-24 15:12:00,
2013-08-24 11:22:00,73.0,70.0,30.20,East,84,1.0,3.0,89,0.00,,,0.06,,2013-08-24 15:22:00,
2013-08-24 11:54:00,74.0,70.0,30.20,ENE,67,2.0,4.0,88,0.00,,,0.06,,2013-08-24 15:54:00,
2013-08-24 12:13:00,74.0,70.0,30.20,NNE,12,2.0,4.0,87,0.00,,,0.06,,2013-08-24 16:13:00,
2013-08-24 12:23:00,75.0,71.0,30.20,NE,36,2.0,4.0,86,0.00,,,0.06,,2013-08-24 16:23:00,
2013-08-24 12:53:00,75.0,71.0,30.20,North,352,0.0,2.0,86,0.00,,,0.06,,2013-08-24 16:53:00,
2013-08-24 13:12:00,76.0,72.0,30.20,East,84,1.0,4.0,86,0.00,,,0.06,,2013-08-24 17:12:00,
2013-08-24 13:23:00,76.0,70.0,30.20,NNE,30,2.0,3.0,82,0.00,,,0.06,,2013-08-24 17:23:00,
2013-08-24 13:42:00,76.0,71.0,30.20,NNE,22,1.0,6.0,85,0.00,,,0.06,,2013-08-24 17:42:00,
2013-08-24 13:52:00,77.0,71.0,30.19,NNE,13,1.0,5.0,81,0.00,,,0.06,,2013-08-24 17:52:00,
2013-08-24 14:13:00,77.0,71.0,30.19,NE,44,1.0,3.0,81,0.00,,,0.06,,2013-08-24 18:13:00,
2013-08-24 14:22:00,78.0,71.0,30.19,NNE,12,1.0,4.0,80,0.00,,,0.00,,2013-08-24 18:22:00,
2013-08-24 14:42:00,78.0,72.0,30.19,North,354,1.0,4.0,81,0.00,,,0.00,,2013-08-24 18:42:00,
2013-08-24 14:53:00,78.0,72.0,30.19,ENE,58,1.0,6.0,81,0.00,,,0.00,,2013-08-24 18:53:00,
2013-08-24 15:12:00,79.0,71.0,30.19,NE,47,1.0,4.0,77,0.00,,,0.00,,2013-08-24 19:12:00,
2013-08-24 15:22:00,79.0,71.0,30.19,East,89,3.0,6.0,77,0.00,,,0.00,,2013-08-24 19:22:00,
2013-08-24 15:52:00,79.0,72.0,30.19,East,91,2.0,4.0,78,0.00,,,0.00,,2013-08-24 19:52:00,
2013-08-24 16:12:00,79.0,71.0,30.19,ESE,120,2.0,3.0,77,0.00,,,0.00,,2013-08-24 20:12:00,
2013-08-24 16:22:00,79.0,72.0,30.19,ENE,57,1.0,2.0,78,0.00,,,0.00,,2013-08-24 20:22:00,
2013-08-24 16:53:00,79.0,71.0,30.18,NE,44,2.0,5.0,77,0.00,,,0.00,,2013-08-24 20:53:00,
2013-08-24 17:22:00,80.0,71.0,30.18,NNW,331,2.0,5.0,73,0.00,,,0.00,,2013-08-24 21:22:00,
2013-08-24 17:55:00,81.0,72.0,30.18,North,358,2.0,3.0,73,0.00,,,0.00,,2013-08-24 21:55:00,
2013-08-24 18:14:00,81.0,72.0,30.17,ENE,60,1.0,4.0,74,0.00,,,0.00,,2013-08-24 22:14:00,
2013-08-24 18:24:00,81.0,71.0,30.17,NE,51,1.0,3.0,72,0.00,,,0.00,,2013-08-24 22:24:00,
2013-08-24 18:53:00,80.0,72.0,30.17,SW,236,0.0,1.0,76,0.00,,,0.00,,2013-08-24 22:53:00,
2013-08-24 19:12:00,79.0,72.0,30.17,North,1,0.0,1.0,79,0.00,,,0.00,,2013-08-24 23:12:00,
2013-08-24 19:22:00,77.0,72.0,30.16,North,1,0.0,0.0,84,0.00,,,0.00,,2013-08-24 23:22:00,
2013-08-24 19:43:00,77.0,71.0,30.17,NNE,23,0.0,1.0,82,0.00,,,0.00,,2013-08-24 23:43:00,
2013-08-24 19:53:00,76.0,71.0,30.17,East,89,0.0,0.0,84,0.00,,,0.00,,2013-08-24 23:53:00,
2013-08-24 20:12:00,75.0,71.0,30.18,East,91,0.0,0.0,88,0.00,,,0.00,,2013-08-25 00:12:00,
2013-08-24 20:22:00,74.0,71.0,30.18,East,91,0.0,0.0,90,0.00,,,0.00,,2013-08-25 00:22:00,
2013-08-24 20:42:00,72.0,70.0,30.19,East,91,0.0,0.0,92,0.00,,,0.00,,2013-08-25 00:42:00,
2013-08-24 20:52:00,72.0,70.0,30.19,East,91,0.0,0.0,93,0.00,,,0.00,,2013-08-25 00:52:00,
2013-08-24 21:11:00,71.0,69.0,30.19,East,91,0.0,0.0,94,0.00,,,0.00,,2013-08-25 01:11:00,
2013-08-24 21:22:00,70.0,68.0,30.20,East,91,0.0,0.0,95,0.00,,,0.00,,2013-08-25 01:22:00,
2013-08-24 21:42:00,70.0,68.0,30.21,East,91,0.0,0.0,95,0.00,,,0.00,,2013-08-25 01:42:00,
2013-08-24 21:52:00,70.0,69.0,30.22,East,91,0.0,0.0,96,0.00,,,0.00,,2013-08-25 01:52:00,
2013-08-24 22:22:00,69.0,68.0,30.22,East,91,0.0,0.0,96,0.00,,,0.00,,2013-08-25 02:22:00,
2013-08-24 22:42:00,69.0,68.0,30.22,East,92,0.0,0.0,96,0.00,,,0.00,,2013-08-25 02:42:00,
2013-08-24 22:52:00,68.0,67.0,30.22,East,92,0.0,0.0,96,0.00,,,0.00,,2013-08-25 02:52:00,
2013-08-24 23:23:00,68.0,67.0,30.24,East,91,0.0,0.0,97,0.00,,,0.00,,2013-08-25 03:23:00,
2013-08-24 23:54:00,67.0,66.0,30.24,East,91,0.0,0.0,97,0.00,,,0.00,,2013-08-25 03:54:00,